Вернуться в каталог

LEMUR 2 TOMATOKECHUP

АктивенПогодаSSO
NORAD 60471·PAYLOAD·🇺🇸 United States

Запущен Aug 16, 2024 с Vandenberg Space Force Base

Loading…

Ближайшие Пролёты (ближайшие 24 часа)

TLE

СвежийSource: Space-Track

Эпоха: Sep 14, 2026, 04:14 UTC

1 60471U 24149D   26257.17696503  .00008339  00000-0  22767-3 0  9997
2 60471  97.3749 339.5309 0000150 237.1657 122.9574 15.37672871115833

Отслеживайте LEMUR 2 TOMATOKECHUP в реальном времени с AllMySat

Download on the App Store